Powrót do katalogu

ONEWEB-0334

AktywnyŁącznośćPO
NORAD 49200·PAYLOAD·🇬🇧 United Kingdom

Wystrzelony Sep 14, 2021 z Baikonur Cosmodrome

Loading…

Następne Przeloty (najbliższe 24 godziny)

TLE

ŚwieżeSource: CelesTrak SupGP

Epoka: Sep 14, 2026, 11:24 UTC

1 49200C 21083Q   26257.47551340  .00002583  00000+0  63599-2 0  2578
2 49200  87.9141 256.6335 0002215  69.8394  18.9565 13.20771052    19

Śledź ONEWEB-0334 w czasie rzeczywistym z AllMySat

Download on the App Store